Tracking 33195 objects as of 8-Feb-2026
HD Live streaming from Space Station
objects crossing your sky now

STARLINK-35898

Track STARLINK-35898 now!
10-day predictions
STARLINK-35898 is classified as:


NORAD ID: 66826
Int'l Code: 2025-280F
Perigee: 577.1 km
Apogee: 581.3 km
Inclination: 70.0 °
Period: 96.1 minutes
Semi major axis: 6950 km
RCS: Unknown
Launch date: December 31, 2025
Source: United States (US)
Launch site: AIR FORCE WESTERN TEST RANGE (AFWTR)
Your satellite tracking list
Your tracking list is empty




NASA's NSSDC Master Catalog

Two Line Element Set (TLE):
1 66826U 25280F   26038.47214488  .00012368  00000-0  10423-2 0  9994
2 66826  70.0009  50.4819 0003044 273.4847  86.5964 14.98336259 11559
Source of the keplerian elements: AFSPC